Theta_e
298 299 299 300 300 300 300 300 300 300 300 299 300 301 302 301 301 300 301 300 300 300 301 302 301 302 303 302 303 305 301 302 302 302 303 302 300 302 302 302 303 302 302 303 304
299 299 300 299 298 298 300 300 299 299 299 299 300 301 302 302 302 299 299 300 300 301 302 302 302 303 303 304 303 303 300 303 301 301 300 301 301 302 302 302 303 304 304 304 304
301 300 300 299 298 298 299 300 299 299 299 300 300 301 301 305 303 300 300 300 301 301 303 304 303 303 303 304 303 302 302 301 302 303 302 302 302 303 303 301 303 304 304 304 304
303 302 301 300 299 299 299 300 299 299 299 300 298 299 301 301 304 299 300 301 301 302 302 304 304 304 303 303 304 304 303 303 302 304 303 302 303 303 303 303 304 304 304 304 303
304 304 305 304 305 304 300 299 299 299 298 300 300 299 301 300 299 300 301 301 301 302 302 303 304 305 303 304 304 304 304 304 304 304 304 304 303 302 303 303 304 304 304 303 303
306 307 308 309 309 309 305 300 300 299 299 298 299 301 302 299 300 300 301 301 301 302 302 303 303 304 304 304 304 303 303 303 304 304 304 303 302 301 303 304 304 304 304 303 303
315 314 312 312 311 311 311 304 302 299 299 298 298 299 299 299 299 300 301 301 301 301 302 302 303 304 304 305 304 303 303 303 304 304 303 302 301 300 304 304 304 303 303 302 302
315 315 314 314 314 312 312 308 304 299 300 297 299 300 298 298 298 300 301 301 301 301 301 302 304 304 304 304 304 304 302 302 304 304 304 302 301 301 304 303 303 303 302 302 301
316 315 315 315 315 313 314 310 306 300 304 297 299 301 298 299 299 299 301 301 302 301 301 302 304 304 305 303 301 299 296 302 302 304 303 302 302 302 303 303 302 301 301 301 299
315 316 316 316 316 314 314 313 309 303 307 299 298 301 299 298 298 300 301 301 302 304 305 303 305 299 296 296 295 296 297 302 302 303 303 301 300 301 302 302 301 300 300 299 298
315 315 315 316 316 315 315 314 310 307 305 299 296 298 298 298 299 301 301 303 302 304 301 303 300 296 301 301 302 302 302 300 301 303 301 301 300 300 301 301 299 300 299 299 298
316 315 315 316 316 315 314 312 308 307 301 299 295 296 297 298 300 301 301 303 300 298 301 300 300 301 302 302 302 301 296 296 300 301 300 299 300 300 300 299 300 299 299 298 297
317 317 315 316 316 314 314 311 307 301 301 298 296 296 296 298 299 300 300 302 298 295 295 297 303 301 302 301 300 300 297 297 299 299 298 299 297 301 300 299 300 299 298 297 296
315 316 315 315 315 314 312 312 307 301 298 302 297 297 298 298 301 300 299 300 302 295 298 299 301 301 302 301 298 296 301 300 299 293 294 298 295 299 300 300 299 297 297 295 295
316 313 316 314 314 313 311 312 309 303 307 299 297 295 298 299 299 301 300 301 302 298 292 297 301 302 299 301 299 298 299 300 300 289 294 294 293 298 300 300 297 295 295 295 294
311 312 312 312 311 310 312 311 308 306 307 296 296 297 296 300 300 300 301 301 300 300 299 296 299 298 299 299 299 300 297 296 295 289 291 291 292 297 298 299 296 295 295 294 293
307 310 310 308 309 309 310 310 306 306 298 298 297 297 296 297 299 300 300 302 298 294 294 297 299 298 298 300 299 295 289 288 290 291 296 287 295 297 297 295 295 294 294 293 292
309 310 309 308 308 308 309 306 310 302 307 297 296 297 298 297 300 297 299 299 299 298 290 291 292 293 299 299 295 297 291 289 288 293 293 286 294 296 296 295 294 294 293 292 291
310 309 308 307 308 308 308 310 303 309 301 299 299 296 294 298 294 294 300 298 299 295 294 291 295 297 298 299 295 294 293 295 287 284 292 290 292 296 295 289 292 293 293 292 291
309 308 308 308 307 308 305 306 306 299 298 298 303 300 294 295 297 293 299 299 299 298 296 295 290 291 295 298 296 293 295 291 287 290 290 290 287 297 290 288 288 290 292 292 291
310 309 306 307 307 306 308 307 305 298 298 298 300 295 296 292 296 296 298 299 298 297 297 291 287 291 295 289 291 290 290 289 288 293 290 290 293 289 289 285 286 289 292 291 290
309 306 304 305 304 302 305 304 299 297 296 297 296 297 294 295 297 295 299 297 299 297 296 296 294 292 292 297 297 293 291 294 290 287 292 294 297 285 285 285 290 292 293 292 291
308 305 304 303 306 304 300 298 297 298 297 296 295 296 296 293 296 298 298 298 299 296 296 296 288 286 292 293 294 292 295 295 289 294 294 290 292 285 283 285 293 292 294 291 290
307 302 299 301 301 302 304 302 300 297 297 296 298 296 296 294 296 295 298 296 297 297 297 297 296 290 292 289 286 291 295 297 293 286 289 292 294 295 293 285 288 292 294 291 288
306 304 303 300 300 301 303 303 302 302 296 296 296 296 295 297 295 294 296 296 296 297 297 294 291 294 294 292 290 294 293 291 293 294 291 294 288 292 293 289 293 294 293 291 288
306 304 302 302 302 301 303 303 304 302 296 297 295 297 296 294 298 297 296 297 296 295 295 295 288 286 286 292 293 292 293 292 291 292 291 294 294 294 294 292 293 292 291 291 287
305 305 304 303 300 301 302 302 301 301 301 300 297 296 296 297 298 297 297 297 296 295 295 292 287 284 287 290 288 291 288 287 286 284 286 287 289 279 283 281 291 291 291 290 287
Wind_Speed
15 16 16 16 15 15 15 14 13 12 10 8 5 1 2 9 13 14 15 16 17 12 9 8 6 9 8 7 6 2 4 1 5 5 4 11 7 8 10 6 7 4 10 13 13
16 16 17 18 18 17 15 14 13 12 11 9 7 5 3 4 8 20 17 12 13 11 10 13 11 11 6 5 5 5 4 1 3 1 2 10 10 13 7 17 9 12 14 18 20
16 17 18 18 18 17 14 13 12 12 12 9 8 8 7 4 4 13 16 12 10 9 8 9 8 7 6 6 7 4 3 2 4 6 7 7 9 12 8 6 2 20 17 18 21
18 19 20 20 20 19 14 14 12 12 11 8 7 7 9 8 3 11 14 12 9 9 7 8 4 3 4 3 3 3 4 3 4 7 6 7 12 11 14 14 19 18 17 17 12
18 19 21 22 22 22 16 13 12 11 11 8 5 5 4 7 7 11 14 11 9 8 11 7 9 5 3 2 2 3 3 6 6 11 8 10 11 11 26 21 8 8 10 9 13
18 18 19 22 23 24 21 13 13 11 9 6 6 8 4 6 8 11 15 10 10 8 10 9 7 7 3 3 2 2 6 12 7 7 6 5 8 6 10 6 11 16 14 16 12
17 18 19 19 21 23 23 15 13 10 8 5 3 4 8 5 8 13 14 9 10 9 8 10 9 5 1 2 2 3 4 7 7 5 3 3 8 6 12 8 10 11 13 9 11
15 16 17 19 21 21 22 17 14 9 11 7 4 3 4 7 7 10 13 9 8 8 5 7 5 4 3 1 1 4 4 5 3 4 3 5 8 10 18 12 19 21 4 8 11
13 15 16 18 20 20 21 16 12 8 15 7 3 3 3 6 10 9 15 9 6 7 6 5 4 3 3 3 4 7 1 3 9 8 4 3 13 15 12 21 10 2 2 6 10
13 14 16 17 18 18 20 15 11 4 17 2 4 3 4 6 9 7 13 8 8 6 5 4 3 3 5 5 2 3 2 3 5 5 9 11 17 23 20 16 7 4 2 4 11
11 12 17 18 17 17 21 14 11 3 9 4 2 2 4 10 4 7 12 6 7 4 3 4 5 2 3 2 2 3 3 6 7 8 6 13 19 22 20 8 9 5 0 7 15
11 12 13 17 16 14 18 14 10 8 4 2 2 1 4 8 4 5 11 5 5 1 6 5 1 2 2 2 2 3 2 6 6 3 7 11 16 17 8 8 11 6 5 11 24
12 14 11 15 17 15 17 16 15 12 2 1 2 1 2 5 2 4 8 3 5 3 2 4 2 2 1 2 2 3 3 3 7 5 5 6 8 5 3 9 8 3 4 21 29
15 14 16 17 11 14 12 16 15 11 4 2 1 2 3 4 3 5 4 2 2 3 1 3 3 2 1 2 4 2 1 4 8 5 2 5 5 6 3 5 4 4 18 29 27
15 15 13 13 10 11 11 13 11 4 4 1 0 1 5 2 5 0 5 0 2 3 5 5 1 1 1 3 4 7 7 10 6 3 4 6 3 7 1 4 1 8 23 28 25
18 13 12 15 15 9 8 11 7 5 5 3 1 2 4 1 1 4 2 1 2 2 2 5 1 2 2 4 2 5 5 6 4 4 2 4 4 7 4 3 2 9 22 23 30
15 10 10 10 7 6 7 8 4 3 2 5 2 1 2 3 2 3 2 2 1 4 4 4 2 0 1 3 5 8 6 4 6 4 5 3 1 10 3 4 3 8 18 22 28
8 8 8 6 5 4 3 4 3 3 3 2 2 1 1 2 1 4 3 2 1 2 2 3 7 2 2 2 4 3 5 5 4 3 6 2 6 6 5 5 3 10 15 23 29
7 8 9 7 5 4 1 1 7 3 2 1 2 4 4 1 2 4 3 3 2 3 5 3 5 0 2 2 4 3 2 3 2 1 2 4 8 7 3 4 8 13 21 23 26
6 7 10 9 6 5 2 5 3 1 0 1 4 4 3 3 1 3 3 2 3 2 3 3 4 2 2 3 4 5 2 3 3 3 6 6 6 8 6 7 6 9 17 18 21
7 3 4 7 8 4 3 4 2 3 2 2 3 2 5 3 4 3 3 1 3 3 3 4 3 5 3 4 8 1 2 2 3 4 4 4 7 7 8 7 6 9 16 16 20
7 2 3 6 3 1 2 3 2 2 2 2 1 3 5 4 2 4 4 5 6 8 4 4 4 4 10 4 4 5 7 5 4 6 4 3 10 4 7 7 11 14 17 16 22
4 4 8 12 3 2 1 2 3 4 3 3 3 3 1 5 2 6 3 2 8 7 6 5 1 3 7 5 4 2 5 4 3 1 7 3 8 4 4 6 13 17 25 17 23
6 2 3 11 6 3 3 3 3 3 2 3 2 3 2 2 2 3 2 3 8 6 4 4 3 7 7 7 3 3 5 8 6 3 4 10 18 27 14 8 12 19 21 17 18
7 5 6 4 6 6 6 4 4 2 4 7 1 6 6 4 2 5 5 2 6 7 4 4 5 3 7 9 6 15 15 9 11 15 7 20 7 19 18 10 20 27 15 17 18
6 5 6 6 5 9 8 6 8 4 8 5 5 6 8 6 8 7 6 5 5 4 5 4 4 2 5 8 9 8 17 16 19 15 15 21 25 26 35 23 11 13 12 15 15
23 14 7 7 5 5 7 7 8 9 12 6 11 5 10 18 17 9 8 5 5 8 8 5 3 2 6 3 7 8 9 6 6 5 7 7 15 2 5 5 11 9 9 13 11
Wind_Direction
31 30 29 31 28 26 25 25 24 24 25 24 29 8 45 31 49 33 38 16 9 10 23 28 53 73 71 69 69 86 65 20 346 14 286 4 17 5 330 291 314 267 293 306 312
37 34 34 30 24 22 23 26 23 19 18 20 22 32 65 58 37 34 25 9 10 12 28 37 52 57 61 48 37 65 92 140 24 43 344 331 3 336 326 312 303 307 306 312 317
37 38 35 32 27 22 21 22 22 20 19 23 42 56 58 75 72 11 9 6 7 22 44 41 54 48 58 50 21 6 108 351 38 21 347 332 334 332 329 315 243 316 318 313 320
37 37 34 31 26 22 23 18 18 19 22 35 70 58 54 36 76 3 3 2 11 20 25 58 55 45 75 75 32 93 78 44 302 326 323 313 313 308 275 268 295 299 306 319 346
38 38 34 31 26 20 16 16 16 16 19 33 45 35 43 36 44 6 2 8 14 10 32 64 70 31 91 62 74 50 328 310 287 302 289 293 277 277 286 296 300 297 303 315 316
40 36 31 28 24 20 14 11 13 13 20 37 55 50 59 67 27 6 3 14 16 23 37 65 77 60 77 54 74 282 286 280 289 243 244 270 281 318 289 266 275 298 287 299 290
34 30 26 21 19 16 15 14 8 11 15 7 323 12 62 63 11 6 360 17 24 32 54 69 69 67 50 101 320 277 329 329 225 222 233 348 316 209 322 273 276 267 278 276 299
23 23 21 18 13 10 8 7 10 25 20 13 44 45 74 22 0 353 7 3 21 41 70 76 70 61 57 3 315 342 38 9 299 181 234 91 271 269 295 279 294 297 263 288 306
13 17 13 13 12 10 10 7 12 41 11 26 56 52 43 359 351 1 8 14 34 56 57 43 30 14 11 45 26 10 260 308 323 319 358 190 292 271 277 285 293 244 236 322 338
352 0 1 1 4 6 7 3 11 35 6 65 61 78 22 335 340 8 9 24 37 36 40 7 350 57 26 57 219 264 344 284 272 287 321 290 275 286 294 280 245 156 31 358 327
341 343 346 351 353 0 3 8 11 343 1 14 342 106 307 343 20 9 4 20 17 33 30 12 61 149 155 111 158 250 251 259 260 270 329 277 284 284 293 192 172 165 262 318 316
322 331 328 338 347 358 1 26 19 330 320 348 306 333 344 358 353 3 359 34 33 67 348 19 153 127 77 267 283 242 256 283 290 343 324 296 286 285 249 207 188 166 314 322 329
314 322 320 330 335 342 359 5 1 351 13 358 279 270 340 1 343 335 5 32 86 37 36 157 176 134 120 323 3 286 192 279 270 333 270 292 294 324 31 125 154 206 333 337 330
313 313 316 321 327 338 350 355 351 344 62 291 39 360 345 348 36 323 357 71 92 198 225 221 208 144 62 258 116 299 244 309 312 34 274 62 277 297 199 182 158 22 347 335 327
294 300 304 311 308 329 334 345 337 350 6 269 96 331 351 40 322 300 351 183 269 226 92 260 135 160 130 220 135 242 325 292 289 150 16 326 60 269 185 226 202 352 335 334 320
292 286 282 291 300 312 330 333 328 41 265 327 347 352 15 351 197 315 321 314 281 199 249 240 176 190 245 289 211 302 329 22 69 101 4 245 114 280 234 202 343 319 328 324 323
290 273 278 288 297 311 337 323 31 144 0 299 326 47 101 306 342 11 317 286 213 43 334 328 299 98 270 7 12 37 43 354 355 6 227 243 346 244 213 131 190 284 315 327 334
276 275 275 293 290 305 328 46 179 239 248 256 243 300 260 1 17 329 312 283 175 134 92 109 331 135 288 137 186 45 123 141 254 285 271 18 227 251 181 146 321 322 332 341 346
269 269 268 275 272 263 171 152 208 209 198 221 138 61 315 234 163 37 236 215 155 142 158 102 281 137 45 60 112 267 71 164 111 137 3 264 288 296 181 314 333 323 352 344 347
256 264 266 258 244 190 108 247 228 156 160 232 166 137 211 260 23 80 236 250 147 122 121 197 340 233 268 85 16 143 168 32 11 344 303 286 280 243 266 264 305 337 313 327 346
246 227 244 228 215 180 204 232 259 193 196 187 224 245 217 209 174 237 242 247 124 133 99 129 104 290 62 200 180 23 345 12 129 155 202 294 265 227 222 207 239 281 292 323 340
195 148 231 181 137 217 199 225 205 209 206 189 226 188 182 174 228 243 234 204 151 150 177 199 154 259 229 266 157 165 190 161 132 270 228 199 268 237 194 204 214 269 299 322 346
223 190 205 184 187 216 226 242 246 200 217 173 232 231 123 187 236 217 225 165 167 170 176 181 276 350 339 351 359 203 222 173 134 112 220 154 266 299 287 266 243 265 306 324 339
198 143 188 195 217 185 171 224 255 225 231 203 216 138 124 247 240 289 261 198 196 198 174 161 216 188 209 213 146 264 226 204 152 152 222 227 273 283 276 269 282 295 308 327 344
226 228 190 180 221 186 176 173 177 252 219 204 301 212 173 220 197 225 226 199 202 201 189 143 223 243 253 253 220 255 254 206 204 218 196 268 222 267 281 292 295 301 302 318 350
219 186 193 189 168 175 193 206 218 183 163 227 206 198 189 197 194 203 183 197 206 170 172 184 258 98 284 255 246 256 253 226 224 241 252 257 276 274 280 282 265 283 296 311 351
225 240 198 197 182 163 187 203 214 173 224 206 202 161 200 231 227 231 246 235 205 168 189 170 151 64 265 348 313 289 238 173 186 210 160 172 232 293 283 262 262 298 288 309 349